Time,TemperatureF,DewpointF,PressureIn,WindDirection,WindDirectionDegrees,WindSpeedMPH,WindSpeedGustMPH,Humidity,HourlyPrecipIn,Conditions,Clouds,dailyrainin,SoftwareType,DateUTC
2015-07-04 00:03:00,63.7,63.1,29.84,ENE,59,0.0,0.0,98,0.00,,CLR,0.00,VWS V14.01,2015-07-04 04:03:00,
2015-07-04 00:08:00,63.5,62.9,29.84,ENE,59,0.0,0.0,98,0.00,,CLR,0.00,VWS V14.01,2015-07-04 04:08:00,
2015-07-04 00:13:00,63.3,62.7,29.84,ENE,59,0.0,0.0,98,0.00,,CLR,0.00,VWS V14.01,2015-07-04 04:13:00,
2015-07-04 00:19:00,63.1,62.5,29.84,ENE,59,0.0,0.0,98,0.00,,CLR,0.00,VWS V14.01,2015-07-04 04:19:00,
2015-07-04 00:24:00,63.1,62.5,29.84,ENE,59,0.0,0.0,98,0.00,,CLR,0.00,VWS V14.01,2015-07-04 04:24:00,
2015-07-04 00:29:00,63.1,62.5,29.84,ENE,59,0.0,0.0,98,0.00,,CLR,0.00,VWS V14.01,2015-07-04 04:29:00,
2015-07-04 00:34:00,62.9,62.3,29.84,ENE,59,0.0,0.0,98,0.00,,CLR,0.00,VWS V14.01,2015-07-04 04:34:00,
2015-07-04 00:39:00,62.9,62.3,29.84,ENE,59,0.0,0.0,98,0.00,,CLR,0.00,VWS V14.01,2015-07-04 04:39:00,
2015-07-04 00:44:00,62.9,62.6,29.84,ENE,59,0.0,0.0,99,0.00,,CLR,0.00,VWS V14.01,2015-07-04 04:44:00,
2015-07-04 00:49:00,63.1,62.8,29.84,ENE,59,0.0,0.0,99,0.00,,CLR,0.00,VWS V14.01,2015-07-04 04:49:00,
2015-07-04 00:54:00,63.1,62.8,29.84,ENE,59,0.0,0.0,99,0.00,,CLR,0.00,VWS V14.01,2015-07-04 04:54:00,
2015-07-04 00:59:00,63.1,62.8,29.84,ENE,59,0.0,0.0,99,0.00,,CLR,0.00,VWS V14.01,2015-07-04 04:59:00,
2015-07-04 01:04:00,63.1,62.8,29.84,ENE,59,0.0,0.0,99,0.00,,CLR,0.00,VWS V14.01,2015-07-04 05:04:00,
2015-07-04 01:09:00,63.0,62.7,29.84,ENE,59,0.0,0.0,99,0.00,,CLR,0.00,VWS V14.01,2015-07-04 05:09:00,
2015-07-04 01:15:00,62.9,62.6,29.84,ENE,59,0.0,0.0,99,0.00,,CLR,0.00,VWS V14.01,2015-07-04 05:15:00,
2015-07-04 01:20:00,62.9,62.6,29.84,ENE,59,0.0,0.0,99,0.00,,CLR,0.00,VWS V14.01,2015-07-04 05:20:00,
2015-07-04 01:25:00,62.9,62.6,29.84,ENE,59,0.0,0.0,99,0.00,,CLR,0.00,VWS V14.01,2015-07-04 05:25:00,
2015-07-04 01:30:00,62.9,62.6,29.84,ENE,59,0.0,0.0,99,0.00,,CLR,0.00,VWS V14.01,2015-07-04 05:30:00,
2015-07-04 01:35:00,62.7,62.4,29.84,ENE,59,0.0,0.0,99,0.00,,CLR,0.00,VWS V14.01,2015-07-04 05:35:00,
2015-07-04 01:40:00,62.6,62.3,29.84,ENE,59,0.0,0.0,99,0.00,,CLR,0.00,VWS V14.01,2015-07-04 05:40:00,
2015-07-04 01:45:00,62.6,62.3,29.84,ENE,59,0.0,0.0,99,0.00,,BKN120,0.00,VWS V14.01,2015-07-04 05:45:00,
2015-07-04 01:50:00,62.6,62.3,29.84,ENE,59,0.0,0.0,99,0.00,,BKN120,0.00,VWS V14.01,2015-07-04 05:50:00,
2015-07-04 01:55:00,62.6,62.3,29.84,ENE,59,0.0,0.0,99,0.00,,BKN120,0.00,VWS V14.01,2015-07-04 05:55:00,
2015-07-04 02:00:00,62.7,62.4,29.84,ENE,59,0.0,0.0,99,0.00,,BKN120,0.00,VWS V14.01,2015-07-04 06:00:00,
2015-07-04 02:05:00,62.7,62.4,29.84,ENE,59,0.0,0.0,99,0.00,,BKN120,0.00,VWS V14.01,2015-07-04 06:05:00,
2015-07-04 02:11:00,62.7,62.4,29.84,ENE,59,0.0,0.0,99,0.00,,BKN120,0.00,VWS V14.01,2015-07-04 06:11:00,
2015-07-04 02:16:00,62.6,62.3,29.84,ENE,59,0.0,0.0,99,0.00,,BKN120,0.00,VWS V14.01,2015-07-04 06:16:00,
2015-07-04 02:21:00,62.5,62.2,29.84,ENE,59,0.0,0.0,99,0.00,,BKN120,0.00,VWS V14.01,2015-07-04 06:21:00,
2015-07-04 02:26:00,62.6,62.3,29.84,ENE,59,0.0,0.0,99,0.00,,BKN120,0.00,VWS V14.01,2015-07-04 06:26:00,
2015-07-04 02:31:00,62.5,62.2,29.84,ENE,59,0.0,0.0,99,0.00,,BKN120,0.00,VWS V14.01,2015-07-04 06:31:00,
2015-07-04 02:36:00,62.4,62.1,29.84,ENE,59,0.0,0.0,99,0.00,,BKN120,0.00,VWS V14.01,2015-07-04 06:36:00,
2015-07-04 02:41:00,62.3,62.0,29.85,ENE,59,0.0,0.0,99,0.00,,BKN120,0.00,VWS V14.01,2015-07-04 06:41:00,
2015-07-04 02:46:00,62.1,61.8,29.85,ENE,59,0.0,0.0,99,0.00,,OVC085,0.00,VWS V14.01,2015-07-04 06:46:00,
2015-07-04 02:51:00,61.9,61.6,29.85,ENE,59,0.0,0.0,99,0.00,,OVC085,0.00,VWS V14.01,2015-07-04 06:51:00,
2015-07-04 02:56:00,61.8,61.5,29.85,ENE,59,0.0,0.0,99,0.00,,OVC085,0.00,VWS V14.01,2015-07-04 06:56:00,
2015-07-04 03:01:00,61.8,61.5,29.85,ENE,59,0.0,0.0,99,0.00,,OVC085,0.00,VWS V14.01,2015-07-04 07:01:00,
2015-07-04 03:06:00,61.7,61.4,29.84,ENE,59,0.0,0.0,99,0.00,,OVC085,0.00,VWS V14.01,2015-07-04 07:06:00,
2015-07-04 03:11:00,61.8,61.5,29.85,ENE,59,0.0,0.0,99,0.00,,OVC085,0.00,VWS V14.01,2015-07-04 07:11:00,
2015-07-04 03:16:00,61.8,61.8,29.85,ENE,59,0.0,0.0,100,0.00,,OVC085,0.00,VWS V14.01,2015-07-04 07:16:00,
2015-07-04 03:21:00,61.9,61.9,29.84,ENE,59,0.0,0.0,100,0.00,,OVC085,0.00,VWS V14.01,2015-07-04 07:21:00,
2015-07-04 03:26:00,62.1,62.1,29.84,ENE,59,0.0,0.0,100,0.00,,OVC085,0.00,VWS V14.01,2015-07-04 07:26:00,
2015-07-04 03:32:00,62.8,62.8,29.84,ENE,59,0.0,1.0,100,0.00,,OVC085,0.00,VWS V14.01,2015-07-04 07:32:00,
2015-07-04 03:37:00,63.1,63.1,29.84,ENE,59,3.0,3.0,100,0.00,,OVC085,0.00,VWS V14.01,2015-07-04 07:37:00,
2015-07-04 03:42:00,63.3,63.3,29.85,ENE,59,1.0,2.0,100,0.00,,OVC085,0.00,VWS V14.01,2015-07-04 07:42:00,
2015-07-04 03:47:00,63.3,63.3,29.85,ENE,59,2.0,3.0,100,0.00,,BKN110,0.00,VWS V14.01,2015-07-04 07:47:00,
2015-07-04 03:52:00,63.3,63.3,29.85,ENE,59,2.0,3.0,100,0.00,,BKN110,0.00,VWS V14.01,2015-07-04 07:52:00,
2015-07-04 03:57:00,63.4,63.4,29.85,ENE,59,3.0,4.0,100,0.00,,BKN110,0.00,VWS V14.01,2015-07-04 07:57:00,
2015-07-04 04:02:00,63.5,63.5,29.85,ENE,59,2.0,4.0,100,0.00,,BKN110,0.00,VWS V14.01,2015-07-04 08:02:00,
2015-07-04 04:07:00,63.5,63.5,29.85,ENE,59,1.0,2.0,100,0.00,,BKN110,0.00,VWS V14.01,2015-07-04 08:07:00,
2015-07-04 04:12:00,63.4,63.4,29.85,ENE,59,0.0,3.0,100,0.00,,BKN110,0.00,VWS V14.01,2015-07-04 08:12:00,
2015-07-04 04:17:00,63.4,63.4,29.85,ENE,59,2.0,2.0,100,0.00,,BKN110,0.00,VWS V14.01,2015-07-04 08:17:00,
2015-07-04 04:22:00,63.2,63.2,29.85,ENE,59,0.0,2.0,100,0.00,,BKN110,0.00,VWS V14.01,2015-07-04 08:22:00,
2015-07-04 04:28:00,63.2,63.2,29.84,ENE,59,0.0,1.0,100,0.00,,BKN110,0.00,VWS V14.01,2015-07-04 08:28:00,
2015-07-04 04:33:00,63.1,63.1,29.85,ENE,59,2.0,3.0,100,0.00,,BKN110,0.00,VWS V14.01,2015-07-04 08:33:00,
2015-07-04 04:38:00,63.1,63.1,29.85,ENE,59,2.0,2.0,100,0.00,,BKN110,0.00,VWS V14.01,2015-07-04 08:38:00,
2015-07-04 04:43:00,63.0,63.0,29.85,ENE,59,3.0,3.0,100,0.00,,BKN110,0.00,VWS V14.01,2015-07-04 08:43:00,
2015-07-04 04:48:00,62.9,62.9,29.85,ENE,59,0.0,2.0,100,0.00,,SCT095,0.00,VWS V14.01,2015-07-04 08:48:00,
2015-07-04 04:53:00,62.8,62.8,29.85,ENE,59,2.0,2.0,100,0.01,,SCT095,0.01,VWS V14.01,2015-07-04 08:53:00,
2015-07-04 04:58:00,62.7,62.7,29.84,ENE,59,2.0,3.0,100,0.01,,SCT095,0.01,VWS V14.01,2015-07-04 08:58:00,
2015-07-04 05:03:00,62.6,62.6,29.85,ENE,59,2.0,3.0,100,0.01,,SCT095,0.01,VWS V14.01,2015-07-04 09:03:00,
2015-07-04 05:08:00,62.6,62.6,29.85,ENE,59,2.0,3.0,100,0.01,,SCT095,0.01,VWS V14.01,2015-07-04 09:08:00,
2015-07-04 05:13:00,62.5,62.5,29.85,ENE,59,3.0,3.0,100,0.01,,SCT095,0.01,VWS V14.01,2015-07-04 09:13:00,
2015-07-04 05:18:00,62.4,62.1,29.85,ENE,59,1.0,2.0,99,0.01,,SCT095,0.01,VWS V14.01,2015-07-04 09:18:00,
2015-07-04 05:24:00,62.3,62.0,29.85,ENE,59,2.0,3.0,99,0.01,,SCT095,0.01,VWS V14.01,2015-07-04 09:24:00,
2015-07-04 05:29:00,62.2,61.9,29.85,ENE,59,1.0,3.0,99,0.01,,SCT095,0.01,VWS V14.01,2015-07-04 09:29:00,
2015-07-04 05:39:00,62.0,61.7,29.86,ENE,59,2.0,3.0,99,0.01,,SCT095,0.01,VWS V14.01,2015-07-04 09:39:00,
2015-07-04 05:44:00,61.9,61.6,29.86,ENE,59,2.0,3.0,99,0.01,,SCT095,0.01,VWS V14.01,2015-07-04 09:44:00,
2015-07-04 05:49:00,61.8,61.5,29.86,ENE,59,1.0,4.0,99,0.01,,BKN110,0.01,VWS V14.01,2015-07-04 09:49:00,
2015-07-04 05:54:00,61.8,61.5,29.86,ENE,59,2.0,3.0,99,0.00,,BKN110,0.01,VWS V14.01,2015-07-04 09:54:00,
2015-07-04 06:04:00,61.9,61.6,29.86,ENE,59,1.0,3.0,99,0.00,,BKN110,0.01,VWS V14.01,2015-07-04 10:04:00,
2015-07-04 06:09:00,61.8,61.2,29.87,ENE,59,1.0,3.0,98,0.00,,BKN110,0.01,VWS V14.01,2015-07-04 10:09:00,
2015-07-04 06:14:00,61.7,61.1,29.87,ENE,59,2.0,2.0,98,0.00,,BKN110,0.01,VWS V14.01,2015-07-04 10:14:00,
2015-07-04 06:19:00,61.7,61.1,29.87,ENE,59,1.0,4.0,98,0.00,,BKN110,0.01,VWS V14.01,2015-07-04 10:19:00,
2015-07-04 06:25:00,61.7,61.1,29.87,ENE,59,3.0,3.0,98,0.00,,BKN110,0.01,VWS V14.01,2015-07-04 10:25:00,
2015-07-04 06:30:00,61.7,61.1,29.87,ENE,59,3.0,3.0,98,0.00,,BKN110,0.01,VWS V14.01,2015-07-04 10:30:00,
2015-07-04 06:35:00,61.6,60.7,29.87,ENE,59,2.0,3.0,97,0.00,,BKN110,0.01,VWS V14.01,2015-07-04 10:35:00,
2015-07-04 06:40:00,61.6,60.7,29.87,ENE,59,2.0,3.0,97,0.00,,BKN110,0.01,VWS V14.01,2015-07-04 10:40:00,
2015-07-04 06:45:00,61.6,60.7,29.88,ENE,59,1.0,4.0,97,0.00,,BKN110,0.01,VWS V14.01,2015-07-04 10:45:00,
2015-07-04 06:50:00,61.7,60.8,29.88,ENE,59,0.0,4.0,97,0.00,,SCT130,0.01,VWS V14.01,2015-07-04 10:50:00,
2015-07-04 06:55:00,61.7,60.5,29.88,ENE,59,2.0,4.0,96,0.00,,SCT130,0.01,VWS V14.01,2015-07-04 10:55:00,
2015-07-04 07:05:00,61.7,60.5,29.89,ENE,59,2.0,3.0,96,0.00,,SCT130,0.01,VWS V14.01,2015-07-04 11:05:00,
2015-07-04 07:10:00,61.8,60.7,29.89,ENE,59,1.0,4.0,96,0.00,,SCT130,0.01,VWS V14.01,2015-07-04 11:10:00,
2015-07-04 07:15:00,62.0,60.8,29.89,ENE,59,2.0,3.0,96,0.00,,SCT130,0.01,VWS V14.01,2015-07-04 11:15:00,
2015-07-04 07:21:00,62.1,61.0,29.89,ENE,59,2.0,4.0,96,0.00,,SCT130,0.01,VWS V14.01,2015-07-04 11:21:00,
2015-07-04 07:26:00,62.2,60.8,29.89,ENE,59,2.0,5.0,95,0.00,,SCT130,0.01,VWS V14.01,2015-07-04 11:26:00,
2015-07-04 07:31:00,62.3,60.8,29.90,ENE,59,3.0,3.0,95,0.00,,SCT130,0.01,VWS V14.01,2015-07-04 11:31:00,
2015-07-04 07:36:00,62.4,61.0,29.90,ENE,59,2.0,4.0,95,0.00,,SCT130,0.01,VWS V14.01,2015-07-04 11:36:00,
2015-07-04 07:41:00,62.4,61.0,29.90,ENE,59,0.0,3.0,95,0.00,,SCT130,0.01,VWS V14.01,2015-07-04 11:41:00,
2015-07-04 07:46:00,62.6,60.8,29.90,ENE,59,4.0,5.0,94,0.00,,FEW140,0.01,VWS V14.01,2015-07-04 11:46:00,
2015-07-04 07:51:00,62.9,61.2,29.90,ENE,59,1.0,4.0,94,0.00,,FEW140,0.01,VWS V14.01,2015-07-04 11:51:00,
2015-07-04 07:56:00,63.4,61.3,29.90,ENE,59,2.0,3.0,93,0.00,,FEW140,0.01,VWS V14.01,2015-07-04 11:56:00,
2015-07-04 08:01:00,63.8,61.4,29.90,ENE,59,1.0,3.0,92,0.00,,FEW140,0.01,VWS V14.01,2015-07-04 12:01:00,
2015-07-04 08:06:00,64.2,61.5,29.90,ENE,59,2.0,2.0,91,0.00,,FEW140,0.01,VWS V14.01,2015-07-04 12:06:00,
2015-07-04 08:11:00,64.5,61.2,29.91,ENE,59,1.0,2.0,89,0.00,,FEW140,0.01,VWS V14.01,2015-07-04 12:11:00,
2015-07-04 08:17:00,65.0,61.7,29.91,ENE,59,1.0,4.0,89,0.00,,FEW140,0.01,VWS V14.01,2015-07-04 12:17:00,
2015-07-04 08:22:00,65.2,61.2,29.91,ENE,59,4.0,4.0,87,0.00,,FEW140,0.01,VWS V14.01,2015-07-04 12:22:00,
2015-07-04 08:27:00,65.3,60.7,29.91,ENE,59,3.0,3.0,85,0.00,,FEW140,0.01,VWS V14.01,2015-07-04 12:27:00,
2015-07-04 08:32:00,65.7,60.7,29.91,ENE,59,2.0,2.0,84,0.00,,FEW140,0.01,VWS V14.01,2015-07-04 12:32:00,
2015-07-04 08:37:00,66.0,60.7,29.91,ENE,59,2.0,4.0,83,0.00,,FEW140,0.01,VWS V14.01,2015-07-04 12:37:00,
2015-07-04 08:42:00,66.3,60.3,29.91,ENE,59,1.0,2.0,81,0.00,,FEW140,0.01,VWS V14.01,2015-07-04 12:42:00,
2015-07-04 08:47:00,66.7,60.7,29.92,ENE,59,3.0,3.0,81,0.00,,CLR,0.01,VWS V14.01,2015-07-04 12:47:00,
2015-07-04 08:52:00,66.9,59.5,29.92,ENE,59,2.0,5.0,77,0.00,,CLR,0.01,VWS V14.01,2015-07-04 12:52:00,
2015-07-04 08:57:00,67.2,59.8,29.92,ENE,59,3.0,5.0,77,0.00,,CLR,0.01,VWS V14.01,2015-07-04 12:57:00,
2015-07-04 09:02:00,67.5,59.7,29.92,ENE,59,3.0,5.0,76,0.00,,CLR,0.01,VWS V14.01,2015-07-04 13:02:00,
2015-07-04 09:07:00,67.7,59.5,29.92,ENE,59,3.0,3.0,75,0.00,,CLR,0.01,VWS V14.01,2015-07-04 13:07:00,
2015-07-04 09:13:00,68.0,57.9,29.92,ENE,59,5.0,5.0,70,0.00,,CLR,0.01,VWS V14.01,2015-07-04 13:13:00,
2015-07-04 09:18:00,68.1,57.6,29.92,ENE,59,4.0,5.0,69,0.00,,CLR,0.01,VWS V14.01,2015-07-04 13:18:00,
2015-07-04 09:23:00,68.4,58.2,29.92,ENE,59,3.0,3.0,70,0.00,,CLR,0.01,VWS V14.01,2015-07-04 13:23:00,
2015-07-04 09:28:00,68.6,58.0,29.93,ENE,59,2.0,3.0,69,0.00,,CLR,0.01,VWS V14.01,2015-07-04 13:28:00,
2015-07-04 09:33:00,69.0,57.6,29.93,ENE,59,3.0,5.0,67,0.00,,CLR,0.01,VWS V14.01,2015-07-04 13:33:00,
2015-07-04 09:38:00,69.1,58.1,29.93,ENE,59,4.0,5.0,68,0.00,,CLR,0.01,VWS V14.01,2015-07-04 13:38:00,
2015-07-04 09:43:00,69.3,59.1,29.93,ENE,59,3.0,4.0,70,0.00,,CLR,0.01,VWS V14.01,2015-07-04 13:43:00,
2015-07-04 09:48:00,69.6,59.8,29.93,ENE,59,3.0,4.0,71,0.00,,CLR,0.01,VWS V14.01,2015-07-04 13:48:00,
2015-07-04 09:53:00,69.7,58.7,29.93,ENE,59,3.0,7.0,68,0.00,,CLR,0.01,VWS V14.01,2015-07-04 13:53:00,
2015-07-04 09:58:00,69.9,57.6,29.93,ENE,59,5.0,10.0,65,0.00,,CLR,0.01,VWS V14.01,2015-07-04 13:58:00,
2015-07-04 10:03:00,69.9,58.0,29.94,ENE,59,2.0,7.0,66,0.00,,CLR,0.01,VWS V14.01,2015-07-04 14:03:00,
2015-07-04 10:09:00,70.1,58.7,29.94,ENE,59,3.0,5.0,67,0.00,,CLR,0.01,VWS V14.01,2015-07-04 14:09:00,
2015-07-04 10:14:00,70.5,59.4,29.94,ENE,59,3.0,5.0,68,0.00,,CLR,0.01,VWS V14.01,2015-07-04 14:14:00,
2015-07-04 10:19:00,70.7,60.0,29.94,NE,44,5.0,5.0,69,0.00,,CLR,0.01,VWS V14.01,2015-07-04 14:19:00,
2015-07-04 10:24:00,70.9,60.2,29.94,NE,43,5.0,5.0,69,0.00,,CLR,0.01,VWS V14.01,2015-07-04 14:24:00,
2015-07-04 10:29:00,71.2,59.7,29.94,NE,38,3.0,6.0,67,0.00,,CLR,0.01,VWS V14.01,2015-07-04 14:29:00,
2015-07-04 10:34:00,71.3,60.2,29.94,NE,37,4.0,5.0,68,0.00,,CLR,0.01,VWS V14.01,2015-07-04 14:34:00,
2015-07-04 10:39:00,71.5,59.1,29.94,NNE,26,4.0,7.0,65,0.00,,CLR,0.01,VWS V14.01,2015-07-04 14:39:00,
2015-07-04 10:44:00,71.5,60.4,29.94,NNE,28,2.0,6.0,68,0.00,,CLR,0.01,VWS V14.01,2015-07-04 14:44:00,
2015-07-04 10:49:00,71.5,59.1,29.94,NNE,28,4.0,7.0,65,0.00,,FEW090,0.01,VWS V14.01,2015-07-04 14:49:00,
2015-07-04 10:54:00,71.7,61.4,29.94,NNE,28,2.0,5.0,70,0.00,,FEW090,0.01,VWS V14.01,2015-07-04 14:54:00,
2015-07-04 10:59:00,72.1,61.0,29.94,NNE,19,1.0,6.0,68,0.00,,FEW090,0.01,VWS V14.01,2015-07-04 14:59:00,
2015-07-04 11:04:00,72.3,60.3,29.94,NNE,19,2.0,5.0,66,0.00,,FEW090,0.01,VWS V14.01,2015-07-04 15:04:00,
2015-07-04 11:10:00,72.6,60.6,29.94,NNE,19,5.0,5.0,66,0.00,,FEW090,0.01,VWS V14.01,2015-07-04 15:10:00,
2015-07-04 11:15:00,72.7,61.5,29.94,NNE,19,0.0,5.0,68,0.00,,FEW090,0.01,VWS V14.01,2015-07-04 15:15:00,
2015-07-04 11:20:00,72.8,59.9,29.94,NNE,19,3.0,6.0,64,0.00,,FEW090,0.01,VWS V14.01,2015-07-04 15:20:00,
2015-07-04 11:25:00,72.8,59.5,29.94,NNE,19,2.0,6.0,63,0.00,,FEW090,0.01,VWS V14.01,2015-07-04 15:25:00,
2015-07-04 11:30:00,72.7,59.8,29.94,NNE,19,1.0,7.0,64,0.00,,FEW090,0.01,VWS V14.01,2015-07-04 15:30:00,
2015-07-04 11:35:00,72.8,60.4,29.94,NE,34,4.0,6.0,65,0.00,,FEW090,0.01,VWS V14.01,2015-07-04 15:35:00,
2015-07-04 11:40:00,73.0,61.0,29.94,NE,34,2.0,4.0,66,0.00,,FEW090,0.01,VWS V14.01,2015-07-04 15:40:00,
2015-07-04 11:45:00,73.2,59.4,29.94,NNE,32,4.0,5.0,62,0.00,,BKN040,0.01,VWS V14.01,2015-07-04 15:45:00,
2015-07-04 11:55:00,73.6,60.7,29.94,NNE,27,1.0,5.0,64,0.00,,BKN040,0.01,VWS V14.01,2015-07-04 15:55:00,
2015-07-04 12:01:00,73.9,61.8,29.95,NNE,27,3.0,4.0,66,0.00,,BKN040,0.01,VWS V14.01,2015-07-04 16:01:00,
2015-07-04 12:06:00,74.1,61.6,29.95,NNE,27,3.0,5.0,65,0.00,,BKN040,0.01,VWS V14.01,2015-07-04 16:06:00,
2015-07-04 12:11:00,74.0,59.2,29.95,NNE,22,0.0,5.0,60,0.00,,BKN040,0.01,VWS V14.01,2015-07-04 16:11:00,
2015-07-04 12:16:00,74.2,62.1,29.95,NNE,22,3.0,6.0,66,0.00,,BKN040,0.01,VWS V14.01,2015-07-04 16:16:00,
2015-07-04 12:21:00,74.3,60.5,29.95,NNE,22,2.0,5.0,62,0.00,,BKN040,0.01,VWS V14.01,2015-07-04 16:21:00,
2015-07-04 12:26:00,74.2,60.4,29.95,NNE,22,1.0,4.0,62,0.00,,BKN040,0.01,VWS V14.01,2015-07-04 16:26:00,
2015-07-04 12:31:00,74.4,61.9,29.95,NNE,17,2.0,6.0,65,0.00,,BKN040,0.01,VWS V14.01,2015-07-04 16:31:00,
2015-07-04 12:36:00,74.5,60.2,29.95,NNE,17,0.0,2.0,61,0.00,,BKN040,0.01,VWS V14.01,2015-07-04 16:36:00,
2015-07-04 12:41:00,75.1,64.2,29.95,NNE,17,0.0,1.0,69,0.00,,BKN040,0.01,VWS V14.01,2015-07-04 16:41:00,
2015-07-04 12:46:00,75.7,62.7,29.95,NNE,17,4.0,4.0,64,0.00,,BKN150,0.01,VWS V14.01,2015-07-04 16:46:00,
2015-07-04 12:51:00,75.9,61.0,29.95,NNE,17,0.0,0.0,60,0.00,,BKN150,0.01,VWS V14.01,2015-07-04 16:51:00,
2015-07-04 12:57:00,76.1,62.6,29.95,NNE,17,1.0,2.0,63,0.00,,BKN150,0.01,VWS V14.01,2015-07-04 16:57:00,
2015-07-04 13:02:00,75.9,63.7,29.95,NNE,17,0.0,0.0,66,0.00,,BKN150,0.01,VWS V14.01,2015-07-04 17:02:00,
2015-07-04 13:07:00,76.1,62.6,29.95,NNE,17,2.0,2.0,63,0.00,,BKN150,0.01,VWS V14.01,2015-07-04 17:07:00,
2015-07-04 13:12:00,76.3,60.9,29.95,NNE,17,1.0,2.0,59,0.00,,BKN150,0.01,VWS V14.01,2015-07-04 17:12:00,
2015-07-04 13:17:00,76.7,60.8,29.95,NNE,17,2.0,3.0,58,0.00,,BKN150,0.01,VWS V14.01,2015-07-04 17:17:00,
2015-07-04 13:22:00,76.4,60.1,29.95,NNE,17,0.0,2.0,57,0.00,,BKN150,0.01,VWS V14.01,2015-07-04 17:22:00,
2015-07-04 13:27:00,76.3,60.5,29.95,NNE,17,1.0,2.0,58,0.00,,BKN150,0.01,VWS V14.01,2015-07-04 17:27:00,
2015-07-04 13:32:00,76.5,62.5,29.95,NNE,17,1.0,2.0,62,0.00,,BKN150,0.01,VWS V14.01,2015-07-04 17:32:00,
2015-07-04 13:37:00,76.8,62.3,29.95,NNE,17,0.0,0.0,61,0.00,,BKN150,0.01,VWS V14.01,2015-07-04 17:37:00,
2015-07-04 13:42:00,77.3,63.7,29.95,NNE,17,3.0,4.0,63,0.00,,BKN150,0.01,VWS V14.01,2015-07-04 17:42:00,
2015-07-04 13:47:00,77.1,66.2,29.95,NNE,17,0.0,0.0,69,0.00,,OVC042,0.01,VWS V14.01,2015-07-04 17:47:00,